| time (UTC) | temp F | wind direction | speed MPH | gust MPH | rain 1hr in | rain 24hr in | rain mn in | humidity % | barometer mb |
| 20260502211602 | 58 | 308 | 2.0 | 6.0 | 0.00 | 0.00 | 0.00 | 43 | 1002.9 |
| 20260502210025 | 58 | 296 | 3.0 | 9.0 | 0.00 | 0.00 | 0.00 | 42 | 1002.7 |
| 20260502204547 | 58 | 293 | 1.0 | 4.0 | 0.00 | 0.00 | 0.00 | 42 | 1002.5 |
| 20260502203016 | 60 | 34 | 1.0 | 7.0 | 0.00 | 0.00 | 0.00 | 42 | 1002.7 |
| 20260502201540 | 59 | 294 | 1.0 | 8.0 | 0.00 | 0.00 | 0.00 | 42 | 1002.9 |
| 20260502200033 | 59 | 263 | 3.0 | 9.0 | 0.00 | 0.00 | 0.00 | 41 | 1002.9 |
| 20260502194555 | 59 | 318 | 2.0 | 7.0 | 0.00 | 0.00 | 0.00 | 44 | 1003.2 |
| 20260502193022 | 59 | 304 | 3.0 | 10.0 | 0.00 | 0.00 | 0.00 | 46 | 1003.4 |
| 20260502191600 | 59 | 294 | 1.0 | 5.0 | 0.00 | 0.00 | 0.00 | 43 | 1003.7 |
| 20260502190007 | 58 | 22 | 3.0 | 8.0 | 0.00 | 0.00 | 0.00 | 45 | 1004.0 |
| 20260502184523 | 57 | 86 | 1.0 | 7.0 | 0.00 | 0.00 | 0.00 | 44 | 1004.1 |
| 20260502183049 | 58 | 313 | 3.0 | 11.0 | 0.00 | 0.00 | 0.00 | 44 | 1004.3 |
| 20260502181516 | 59 | 108 | 1.0 | 8.0 | 0.00 | 0.00 | 0.00 | 48 | 1004.2 |
| 20260502163102 | 56 | 290 | 1.0 | 12.0 | 0.00 | 0.00 | 0.00 | 53 | 1005.0 |
| 20260502161510 | 55 | 318 | 4.0 | 9.0 | 0.00 | 0.00 | 0.00 | 54 | 1005.3 |
| 20260502151548 | 54 | 150 | 2.0 | 12.0 | 0.00 | 0.00 | 0.00 | 60 | 1005.4 |
| 20260502123055 | 51 | 306 | 1.0 | 5.0 | 0.00 | 0.00 | 0.00 | 82 | 1005.2 |
| 20260502121502 | 51 | 289 | 1.0 | 8.0 | 0.00 | 0.00 | 0.00 | 83 | 1005.1 |
| 20260502114532 | 51 | 311 | 3.0 | 9.0 | 0.00 | 0.00 | 0.00 | 83 | 1004.8 |
| 20260502113100 | 51 | 302 | 0.0 | 5.0 | 0.00 | 0.00 | 0.00 | 83 | 1004.7 |
| 20260502111516 | 50 | 299 | 2.0 | 9.0 | 0.00 | 0.00 | 0.00 | 83 | 1004.7 |
| 20260502110054 | 50 | 322 | 2.0 | 6.0 | 0.00 | 0.00 | 0.00 | 83 | 1004.5 |
| 20260502104514 | 50 | 306 | 1.0 | 5.0 | 0.00 | 0.00 | 0.00 | 84 | 1004.4 |
| 20260502103041 | 49 | 299 | 0.0 | 3.0 | 0.00 | 0.00 | 0.00 | 87 | 1004.1 |
| 20260502101537 | 48 | 287 | 0.0 | 0.0 | 0.00 | 0.00 | 0.00 | 86 | 1004.3 |
| 20260502091521 | 50 | 287 | 0.0 | 0.0 | 0.00 | 0.00 | 0.00 | 81 | 1004.1 |
| 20260502080105 | 51 | 287 | 0.0 | 0.0 | 0.00 | 0.00 | 0.00 | 80 | 1004.0 |
| 20260502070016 | 52 | 288 | 0.0 | 0.0 | 0.00 | 0.00 | 0.00 | 77 | 1004.2 |
| 20260502064533 | 52 | 288 | 0.0 | 0.0 | 0.00 | 0.00 | 0.00 | 76 | 1004.2 |
| 20260502063100 | 52 | 288 | 0.0 | 0.0 | 0.00 | 0.00 | 0.00 | 75 | 1004.1 |
| 20260502061553 | 53 | 288 | 0.0 | 0.0 | 0.00 | 0.00 | 0.00 | 74 | 1004.2 |
| 20260502054514 | 54 | 288 | 0.0 | 2.0 | 0.00 | 0.00 | 0.00 | 70 | 1004.5 |
| 20260502053018 | 54 | 295 | 0.0 | 3.0 | 0.00 | 0.00 | 0.00 | 69 | 1004.7 |
| 20260502051522 | 54 | 259 | 0.0 | 1.0 | 0.00 | 0.00 | 0.00 | 68 | 1004.5 |
| 20260502050027 | 54 | 259 | 1.0 | 3.0 | 0.00 | 0.00 | 0.00 | 67 | 1004.5 |
| 20260502044544 | 54 | 268 | 0.0 | 2.0 | 0.00 | 0.00 | 0.00 | 69 | 1004.5 |
| 20260502043115 | 53 | 268 | 0.0 | 0.0 | 0.00 | 0.00 | 0.00 | 72 | 1004.4 |
| 20260502041518 | 54 | 268 | 0.0 | 0.0 | 0.00 | 0.00 | 0.00 | 73 | 1004.3 |
| 20260502040039 | 54 | 268 | 0.0 | 0.0 | 0.00 | 0.00 | 0.00 | 72 | 1004.1 |
| 20260502034620 | 54 | 268 | 0.0 | 0.0 | 0.00 | 0.00 | 0.00 | 71 | 1004.2 |
| 20260502033051 | 54 | 268 | 0.0 | 0.0 | 0.00 | 0.00 | 0.00 | 70 | 1004.0 |
| 20260502031502 | 55 | 268 | 0.0 | 2.0 | 0.00 | 0.00 | 0.00 | 68 | 1004.0 |
| 20260502030023 | 55 | 269 | 0.0 | 0.0 | 0.00 | 0.00 | 0.00 | 66 | 1004.3 |
| 20260502024514 | 55 | 269 | 0.0 | 0.0 | 0.00 | 0.00 | 0.00 | 64 | 1004.4 |
| 20260502023048 | 55 | 269 | 0.0 | 0.0 | 0.00 | 0.00 | 0.00 | 62 | 1004.4 |
| 20260502021548 | 55 | 269 | 0.0 | 0.0 | 0.00 | 0.00 | 0.00 | 62 | 1004.6 |
| 20260502020011 | 55 | 269 | 0.0 | 0.0 | 0.00 | 0.00 | 0.00 | 61 | 1004.3 |
| 20260502014529 | 56 | 269 | 0.0 | 3.0 | 0.00 | 0.00 | 0.00 | 60 | 1004.4 |
| 20260502013057 | 55 | 262 | 0.0 | 0.0 | 0.00 | 0.00 | 0.00 | 58 | 1004.2 |
| 20260502011512 | 55 | 262 | 0.0 | 0.0 | 0.00 | 0.00 | 0.00 | 57 | 1004.0 |
| 20260502010014 | 56 | 262 | 0.0 | 0.0 | 0.00 | 0.00 | 0.00 | 55 | 1004.0 |
| 20260502004531 | 56 | 262 | 0.0 | 0.0 | 0.00 | 0.00 | 0.00 | 54 | 1004.0 |
| 20260502003057 | 57 | 262 | 0.0 | 0.0 | 0.00 | 0.00 | 0.00 | 52 | 1003.6 |
| 20260502001522 | 59 | 262 | 0.0 | 2.0 | 0.00 | 0.00 | 0.00 | 50 | 1003.6 |
| 20260502000043 | 60 | 263 | 0.0 | 2.0 | 0.00 | 0.00 | 0.00 | 49 | 1003.5 |
| 20260501234555 | 61 | 277 | 0.0 | 0.0 | 0.00 | 0.01 | 0.00 | 48 | 1003.2 |
| 20260501233040 | 63 | 283 | 0.0 | 0.0 | 0.00 | 0.01 | 0.00 | 44 | 1003.1 |
| 20260501231503 | 63 | 273 | 0.0 | 3.0 | 0.00 | 0.01 | 0.00 | 43 | 1003.0 |
| 20260501230041 | 64 | 304 | 2.0 | 5.0 | 0.00 | 0.01 | 0.00 | 41 | 1002.8 |
| 20260501224559 | 65 | 254 | 1.0 | 4.0 | 0.00 | 0.01 | 0.00 | 42 | 1002.9 |
| 20260501223023 | 67 | 283 | 2.0 | 4.0 | 0.00 | 0.01 | 0.00 | 40 | 1003.1 |
| 20260501221605 | 66 | 264 | 0.0 | 7.0 | 0.00 | 0.01 | 0.00 | 41 | 1003.0 |
| 20260501220007 | 66 | 266 | 3.0 | 7.0 | 0.00 | 0.01 | 0.00 | 39 | 1003.0 |
| 20260501214510 | 66 | 278 | 2.0 | 4.0 | 0.00 | 0.01 | 0.00 | 39 | 1003.1 |
| 20260501213034 | 66 | 286 | 3.0 | 6.0 | 0.00 | 0.01 | 0.00 | 39 | 1003.2 |